Location: Golden Pond Observatory
(36.7773°N, 88.0631°W)
Time: 13:16:21
(UTC-06:00)

Hubble Space Telescope - Visible Passes

Search period start: 19 November 2019 00:00
Search period end: 29 November 2019 00:00
Orbit: 536 x 540 km, 28.5° (Epoch: 17 November)

Date Brightness Start Highest point End Pass type
(mag) Time Alt. Az. Time Alt. Az. Time Alt. Az.
19 Nov 2.6 18:26:47 10° SW 18:29:49 20° SSE 18:30:01 20° SSE visible
20 Nov 2.4 18:15:57 10° SW 18:19:09 22° S 18:20:03 20° SSE visible
21 Nov 2.5 18:05:09 10° SW 18:08:28 23° S 18:10:04 19° SE visible
22 Nov 2.4 17:54:25 10° SW 17:57:48 25° S 18:00:06 16° SE visible
22 Nov 3.9 19:35:15 10° WSW 19:35:26 11° WSW 19:35:26 11° WSW visible
23 Nov 2.5 17:43:42 10° SW 17:47:08 25° S 17:50:10 12° SE visible
23 Nov 3.6 19:24:43 10° WSW 19:25:30 14° SW 19:25:30 14° SW visible
24 Nov 2.5 17:33:02 10° WSW 17:36:28 25° S 17:39:54 10° SE visible
24 Nov 3.4 19:14:14 10° WSW 19:15:37 15° SW 19:15:37 15° SW visible
25 Nov 2.6 17:22:23 10° WSW 17:25:48 25° S 17:29:12 10° SE visible
25 Nov 3.3 19:03:50 10° SW 19:05:48 16° SSW 19:05:48 16° SSW visible
26 Nov 2.7 17:11:46 10° WSW 17:15:07 24° S 17:18:29 10° SE visible
26 Nov 3.3 18:53:34 10° SW 18:55:43 14° SSW 18:56:04 14° SSW visible
27 Nov 2.9 17:01:11 10° WSW 17:04:27 23° S 17:07:43 10° SE visible
27 Nov 3.5 18:43:32 10° SW 18:45:00 12° SSW 18:46:26 10° S visible
